• In Hungary
  • List of Countries
  • For 7 days
  • Water Temperature
  • Satellite Maps
  • Weather Map
  • News
  • Weather Widgets
  • user-avatar
    Login

    Hourly Weather Schilde

    Today, 22 February, Thursday

    Time Temperature Precipitation Wind Pressure Humidity
    00:00 -3°C° 0 mm 4 mps 767 mmHg 76%
    01:00 -3°C° 0 mm 4 mps 767 mmHg 76%
    02:00 -3°C° 0 mm 4 mps 767 mmHg 76%
    03:00 -3°C° 0 mm 4 mps 767 mmHg 76%
    04:00 -3°C° 0 mm 4 mps 767 mmHg 75%
    05:00 -3°C° 0 mm 4 mps 767 mmHg 73%
    06:00 -3°C° 0 mm 4 mps 767 mmHg 72%
    07:00 -2°C° 0 mm 5 mps 767 mmHg 67%
    08:00 -2°C° 0 mm 5 mps 767 mmHg 62%
    09:00 -1°C° 0 mm 5 mps 767 mmHg 57%
    10:00 -1°C° 0 mm 6 mps 767 mmHg 52%
    11:00 +1°C° 0 mm 6 mps 766 mmHg 48%
    12:00 +3°C° 0 mm 6 mps 766 mmHg 43%
    13:00 +3°C° 0 mm 6 mps 766 mmHg 44%
    14:00 +3°C° 0 mm 6 mps 766 mmHg 45%
    15:00 +3°C° 0 mm 6 mps 765 mmHg 45%
    16:00 +2°C° 0 mm 6 mps 766 mmHg 50%
    17:00 0°C° 0 mm 5 mps 766 mmHg 55%
    18:00 -1°C° 0 mm 5 mps 766 mmHg 59%
    19:00 -1°C° 0 mm 5 mps 766 mmHg 61%
    20:00 -2°C° 0 mm 5 mps 766 mmHg 63%
    21:00 -2°C° 0 mm 5 mps 766 mmHg 65%
    22:00 -2°C° 0 mm 5 mps 766 mmHg 66%
    23:00 -3°C° 0 mm 4 mps 766 mmHg 67%

    Tomorrow, 23 February, Friday

    Time Temperature Precipitation Wind Pressure Humidity
    00:00 -3°C° 0 mm 4 mps 766 mmHg 68%
    01:00 -3°C° 0 mm 4 mps 766 mmHg 68%
    02:00 -3°C° 0 mm 4 mps 766 mmHg 69%
    03:00 -3°C° 0 mm 4 mps 766 mmHg 69%
    04:00 -4°C° 0 mm 4 mps 766 mmHg 67%
    05:00 -5°C° 0 mm 5 mps 766 mmHg 65%
    06:00 -5°C° 0 mm 5 mps 766 mmHg 64%
    07:00 -4°C° 0 mm 5 mps 766 mmHg 58%
    08:00 -3°C° 0 mm 6 mps 766 mmHg 52%
    09:00 -2°C° 0 mm 7 mps 766 mmHg 46%
    10:00 -2°C° 0 mm 7 mps 765 mmHg 43%
    11:00 -1°C° 0 mm 7 mps 765 mmHg 40%
    12:00 0°C° 0 mm 7 mps 765 mmHg 37%
    13:00 0°C° 0 mm 7 mps 764 mmHg 36%
    14:00 0°C° 0 mm 7 mps 764 mmHg 36%
    15:00 +2°C° 0 mm 7 mps 764 mmHg 36%
    16:00 -1°C° 0 mm 6 mps 764 mmHg 37%
    17:00 -2°C° 0 mm 6 mps 764 mmHg 38%
    18:00 -2°C° 0 mm 5 mps 764 mmHg 40%
    19:00 -2°C° 0 mm 5 mps 764 mmHg 40%
    20:00 -4°C° 0 mm 5 mps 764 mmHg 40%
    21:00 -4°C° 0 mm 5 mps 764 mmHg 39%
    22:00 -4°C° 0 mm 5 mps 764 mmHg 40%
    23:00 -4°C° 0 mm 5 mps 764 mmHg 41%

    Day after tomorrow, 24 February, Saturday

    Time Temperature Precipitation Wind Pressure Humidity
    00:00 -4°C° 0 mm 6 mps 764 mmHg 42%
    01:00 -5°C° 0 mm 6 mps 764 mmHg 42%
    02:00 -5°C° 0 mm 6 mps 764 mmHg 43%
    03:00 -5°C° 0 mm 6 mps 764 mmHg 44%
    04:00 -5°C° 0 mm 6 mps 764 mmHg 43%
    05:00 -5°C° 0 mm 6 mps 764 mmHg 43%
    06:00 -5°C° 0 mm 6 mps 764 mmHg 42%
    07:00 -4°C° 0 mm 6 mps 764 mmHg 39%
    08:00 -3°C° 0 mm 7 mps 765 mmHg 36%
    09:00 -2°C° 0 mm 7 mps 765 mmHg 33%
    10:00 -1°C° 0 mm 7 mps 765 mmHg 31%
    11:00 0°C° 0 mm 8 mps 765 mmHg 29%
    12:00 +1°C° 0 mm 8 mps 764 mmHg 28%
    13:00 +1°C° 0 mm 8 mps 764 mmHg 28%
    14:00 +2°C° 0 mm 8 mps 764 mmHg 28%
    15:00 +2°C° 0 mm 8 mps 764 mmHg 29%
    16:00 +2°C° 0 mm 7 mps 764 mmHg 33%
    17:00 0°C° 0 mm 7 mps 765 mmHg 37%
    18:00 -2°C° 0 mm 6 mps 765 mmHg 41%
    19:00 -2°C° 0 mm 6 mps 766 mmHg 45%
    20:00 -2°C° 0 mm 7 mps 766 mmHg 48%
    21:00 -3°C° 0 mm 7 mps 767 mmHg 51%
    22:00 -3°C° 0 mm 7 mps 767 mmHg 51%
    23:00 -4°C° 0 mm 7 mps 768 mmHg 51%

    25 February, Sunday

    Time Temperature Precipitation Wind Pressure Humidity
    00:00 -4°C° 0 mm 6 mps 768 mmHg 51%
    01:00 -4°C° 0 mm 6 mps 768 mmHg 48%
    02:00 -5°C° 0 mm 6 mps 768 mmHg 46%
    03:00 -5°C° 0 mm 6 mps 768 mmHg 43%
    04:00 -6°C° 0 mm 7 mps 768 mmHg 43%
    05:00 -6°C° 0 mm 7 mps 769 mmHg 43%
    06:00 -7°C° 0 mm 7 mps 769 mmHg 43%
    07:00 -6°C° 0 mm 7 mps 769 mmHg 39%
    08:00 -6°C° 0 mm 7 mps 770 mmHg 35%
    09:00 -5°C° 0 mm 8 mps 770 mmHg 30%
    10:00 -4°C° 0 mm 8 mps 770 mmHg 28%
    11:00 -2°C° 0 mm 7 mps 770 mmHg 26%
    12:00 -2°C° 0 mm 7 mps 770 mmHg 23%
    13:00 -1°C° 0 mm 7 mps 770 mmHg 24%
    14:00 -1°C° 0 mm 7 mps 770 mmHg 24%
    15:00 -1°C° 0 mm 7 mps 770 mmHg 25%
    16:00 -3°C° 0 mm 7 mps 770 mmHg 27%
    17:00 -4°C° 0 mm 6 mps 771 mmHg 30%
    18:00 -5°C° 0 mm 6 mps 771 mmHg 32%
    19:00 -5°C° 0 mm 6 mps 771 mmHg 33%
    20:00 -5°C° 0 mm 6 mps 772 mmHg 34%
    21:00 -6°C° 0 mm 6 mps 772 mmHg 35%
    22:00 -6°C° 0 mm 5 mps 772 mmHg 36%
    23:00 -6°C° 0 mm 5 mps 772 mmHg 37%

    26 February, Monday

    Time Temperature Precipitation Wind Pressure Humidity
    00:00 -5°C° 0 mm 4 mps 772 mmHg 38%
    01:00 -5°C° 0 mm 4 mps 772 mmHg 38%
    02:00 -5°C° 0 mm 4 mps 772 mmHg 39%
    03:00 -5°C° 0 mm 4 mps 772 mmHg 40%
    04:00 -7°C° 0 mm 4 mps 772 mmHg 42%
    05:00 -7°C° 0 mm 4 mps 772 mmHg 45%
    06:00 -7°C° 0 mm 4 mps 772 mmHg 47%
    07:00 -6°C° 0 mm 5 mps 772 mmHg 47%
    08:00 -6°C° 0 mm 5 mps 772 mmHg 48%
    09:00 -5°C° 0 mm 5 mps 772 mmHg 48%
    10:00 -4°C° 0 mm 5 mps 772 mmHg 45%
    11:00 -4°C° 0 mm 5 mps 771 mmHg 42%
    12:00 -2°C° 0 mm 5 mps 771 mmHg 39%
    13:00 -3°C° 0 mm 6 mps 771 mmHg 38%
    14:00 -3°C° 0 mm 6 mps 770 mmHg 38%
    15:00 -3°C° 0 mm 6 mps 770 mmHg 37%
    16:00 -4°C° 0 mm 5 mps 770 mmHg 41%
    17:00 -5°C° 0 mm 5 mps 770 mmHg 44%
    18:00 -4°C° 0 mm 4 mps 769 mmHg 47%
    19:00 -5°C° 0 mm 4 mps 769 mmHg 49%
    20:00 -5°C° 0 mm 4 mps 769 mmHg 50%
    21:00 -5°C° 0 mm 4 mps 769 mmHg 52%
    22:00 -5°C° 0 mm 4 mps 769 mmHg 53%
    23:00 -5°C° 0 mm 4 mps 769 mmHg 55%

    27 February, Tuesday

    Time Temperature Precipitation Wind Pressure Humidity
    00:00 -7°C° 0 mm 4 mps 769 mmHg 57%
    01:00 -7°C° 0 mm 4 mps 768 mmHg 59%
    02:00 -7°C° 0 mm 4 mps 768 mmHg 61%
    03:00 -7°C° 0 mm 4 mps 768 mmHg 63%
    04:00 -7°C° 0 mm 4 mps 768 mmHg 64%
    05:00 -7°C° 0 mm 4 mps 768 mmHg 65%
    06:00 -8°C° 0 mm 4 mps 767 mmHg 67%
    07:00 -7°C° 0 mm 4 mps 767 mmHg 63%
    08:00 -5°C° 0 mm 4 mps 767 mmHg 59%
    09:00 -6°C° 0 mm 5 mps 767 mmHg 56%
    10:00 -4°C° 0 mm 4 mps 767 mmHg 50%
    11:00 -3°C° 0 mm 4 mps 766 mmHg 44%
    12:00 -3°C° 0 mm 4 mps 766 mmHg 38%
    13:00 -2°C° 0 mm 4 mps 766 mmHg 35%
    14:00 -2°C° 0 mm 4 mps 765 mmHg 33%
    15:00 -2°C° 0 mm 4 mps 765 mmHg 31%
    16:00 -2°C° 0 mm 3 mps 765 mmHg 34%
    17:00 -4°C° 0 mm 3 mps 765 mmHg 36%
    18:00 -4°C° 0 mm 2 mps 765 mmHg 39%
    19:00 -4°C° 0 mm 2 mps 765 mmHg 40%
    20:00 -4°C° 0 mm 2 mps 765 mmHg 41%
    21:00 -3°C° 0 mm 1 mps 764 mmHg 42%
    22:00 -3°C° 0 mm 1 mps 764 mmHg 43%
    23:00 -3°C° 0 mm 1 mps 764 mmHg 44%
    Show more